Hourly Weather Bartashi

Today, 19 April, Monday

Time Temperature Precipitation Wind Pressure Humidity
00:00 +8°C° 0 mm 2 mps 750 mmHg 88%
01:00 +7°C° 0 mm 2 mps 750 mmHg 89%
02:00 +7°C° 0 mm 2 mps 750 mmHg 89%
03:00 +6°C° 0 mm 2 mps 750 mmHg 90%
04:00 +6°C° 0 mm 2 mps 750 mmHg 90%
05:00 +6°C° 0 mm 2 mps 750 mmHg 90%
06:00 +7°C° 0 mm 2 mps 750 mmHg 85%
07:00 +8°C° 0 mm 2 mps 750 mmHg 79%
08:00 +10°C° 0 mm 2 mps 750 mmHg 73%
09:00 +12°C° 0 mm 2 mps 750 mmHg 69%
10:00 +12°C° 0 mm 3 mps 750 mmHg 64%
11:00 +13°C° 0 mm 3 mps 750 mmHg 59%
12:00 +13°C° 0.1 mm 4 mps 750 mmHg 56%
13:00 +14°C° 0.1 mm 4 mps 750 mmHg 53%
14:00 +14°C° 0.1 mm 4 mps 750 mmHg 49%
15:00 +13°C° 0 mm 4 mps 750 mmHg 53%
16:00 +12°C° 0 mm 4 mps 749 mmHg 57%
17:00 +12°C° 0 mm 4 mps 749 mmHg 62%
18:00 +11°C° 0 mm 4 mps 749 mmHg 67%
19:00 +9°C° 0 mm 3 mps 749 mmHg 72%
20:00 +8°C° 0 mm 3 mps 749 mmHg 77%
21:00 +7°C° 0 mm 3 mps 749 mmHg 79%
22:00 +7°C° 0 mm 3 mps 749 mmHg 82%
23:00 +6°C° 0 mm 2 mps 749 mmHg 84%

Tomorrow, 20 April, Tuesday

Time Temperature Precipitation Wind Pressure Humidity
00:00 +6°C° 0 mm 2 mps 749 mmHg 86%
01:00 +6°C° 0 mm 2 mps 749 mmHg 88%
02:00 +5°C° 0 mm 2 mps 748 mmHg 90%
03:00 +5°C° 0 mm 2 mps 748 mmHg 91%
04:00 +5°C° 0 mm 2 mps 748 mmHg 93%
05:00 +5°C° 0 mm 2 mps 748 mmHg 94%
06:00 +6°C° 0 mm 2 mps 748 mmHg 89%
07:00 +7°C° 0 mm 3 mps 748 mmHg 84%
08:00 +8°C° 0 mm 3 mps 748 mmHg 79%
09:00 +9°C° 0.1 mm 3 mps 747 mmHg 75%
10:00 +9°C° 0.1 mm 3 mps 747 mmHg 72%
11:00 +10°C° 0.1 mm 3 mps 747 mmHg 68%
12:00 +10°C° 0.2 mm 3 mps 746 mmHg 67%
13:00 +11°C° 0.2 mm 3 mps 746 mmHg 67%
14:00 +11°C° 0.2 mm 3 mps 746 mmHg 66%
15:00 +11°C° 0.1 mm 3 mps 745 mmHg 64%
16:00 +12°C° 0.1 mm 2 mps 745 mmHg 63%
17:00 +12°C° 0.1 mm 2 mps 744 mmHg 62%
18:00 +11°C° 0.1 mm 1 mps 744 mmHg 67%
19:00 +10°C° 0.1 mm 1 mps 744 mmHg 72%
20:00 +9°C° 0.1 mm 1 mps 744 mmHg 77%
21:00 +8°C° 0 mm 1 mps 744 mmHg 79%
22:00 +8°C° 0 mm 1 mps 744 mmHg 81%
23:00 +7°C° 0 mm 1 mps 744 mmHg 83%

Day after tomorrow, 21 April, Wednesday

Time Temperature Precipitation Wind Pressure Humidity
00:00 +7°C° 0 mm 1 mps 743 mmHg 85%
01:00 +6°C° 0 mm 1 mps 743 mmHg 88%
02:00 +5°C° 0 mm 2 mps 743 mmHg 90%
03:00 +5°C° 0 mm 2 mps 742 mmHg 91%
04:00 +5°C° 0 mm 2 mps 742 mmHg 92%
05:00 +4°C° 0 mm 2 mps 742 mmHg 94%
06:00 +6°C° 0 mm 2 mps 742 mmHg 89%
07:00 +7°C° 0 mm 2 mps 742 mmHg 85%
08:00 +8°C° 0 mm 2 mps 742 mmHg 80%
09:00 +9°C° 0.1 mm 2 mps 742 mmHg 74%
10:00 +10°C° 0.1 mm 2 mps 742 mmHg 67%
11:00 +12°C° 0.1 mm 3 mps 742 mmHg 60%
12:00 +12°C° 0.4 mm 3 mps 741 mmHg 60%
13:00 +12°C° 0.4 mm 3 mps 741 mmHg 59%
14:00 +12°C° 0.4 mm 3 mps 741 mmHg 59%
15:00 +12°C° 0.3 mm 3 mps 741 mmHg 60%
16:00 +12°C° 0.3 mm 3 mps 741 mmHg 60%
17:00 +12°C° 0.3 mm 3 mps 741 mmHg 61%
18:00 +11°C° 0.1 mm 3 mps 741 mmHg 65%
19:00 +9°C° 0.1 mm 2 mps 741 mmHg 70%
20:00 +8°C° 0.1 mm 2 mps 741 mmHg 74%
21:00 +8°C° 0 mm 2 mps 741 mmHg 77%
22:00 +7°C° 0 mm 2 mps 741 mmHg 79%
23:00 +6°C° 0 mm 2 mps 741 mmHg 81%

22 April, Thursday

Time Temperature Precipitation Wind Pressure Humidity
00:00 +6°C° 0 mm 2 mps 741 mmHg 84%
01:00 +6°C° 0 mm 2 mps 741 mmHg 86%
02:00 +4°C° 0 mm 3 mps 741 mmHg 88%
03:00 +4°C° 0.1 mm 3 mps 741 mmHg 90%
04:00 +4°C° 0.1 mm 3 mps 741 mmHg 92%
05:00 +4°C° 0.1 mm 3 mps 741 mmHg 93%
06:00 +5°C° 0 mm 4 mps 742 mmHg 90%
07:00 +5°C° 0 mm 4 mps 742 mmHg 87%
08:00 +5°C° 0 mm 5 mps 743 mmHg 84%
09:00 +6°C° 0 mm 5 mps 743 mmHg 74%
10:00 +7°C° 0 mm 5 mps 743 mmHg 64%
11:00 +8°C° 0 mm 5 mps 744 mmHg 54%
12:00 +9°C° 0 mm 5 mps 744 mmHg 50%
13:00 +10°C° 0 mm 6 mps 743 mmHg 46%
14:00 +10°C° 0 mm 6 mps 743 mmHg 42%
15:00 +10°C° 0 mm 6 mps 744 mmHg 45%
16:00 +9°C° 0 mm 6 mps 744 mmHg 48%
17:00 +9°C° 0 mm 5 mps 744 mmHg 51%
18:00 +7°C° 0 mm 4 mps 744 mmHg 53%
19:00 +6°C° 0 mm 4 mps 744 mmHg 56%
20:00 +5°C° 0 mm 3 mps 744 mmHg 58%
21:00 +4°C° 0 mm 3 mps 744 mmHg 61%
22:00 +4°C° 0 mm 3 mps 744 mmHg 63%
23:00 +4°C° 0 mm 3 mps 744 mmHg 65%

23 April, Friday

Time Temperature Precipitation Wind Pressure Humidity
00:00 +3°C° 0 mm 3 mps 744 mmHg 68%
01:00 +2°C° 0 mm 3 mps 744 mmHg 71%
02:00 +1°C° 0 mm 3 mps 743 mmHg 75%
03:00 +1°C° 0 mm 3 mps 743 mmHg 76%
04:00 +1°C° 0 mm 3 mps 743 mmHg 78%
05:00 0°C° 0 mm 3 mps 743 mmHg 79%
06:00 0°C° 0 mm 4 mps 743 mmHg 81%
07:00 +1°C° 0 mm 5 mps 743 mmHg 83%
08:00 +1°C° 0 mm 6 mps 743 mmHg 85%
09:00 +2°C° 0.3 mm 6 mps 743 mmHg 86%
10:00 +2°C° 0.3 mm 6 mps 743 mmHg 86%
11:00 +2°C° 0.3 mm 6 mps 743 mmHg 86%
12:00 +3°C° 0.2 mm 6 mps 743 mmHg 78%
13:00 +4°C° 0.2 mm 7 mps 743 mmHg 69%
14:00 +5°C° 0.2 mm 7 mps 743 mmHg 61%
15:00 +5°C° 0.3 mm 7 mps 743 mmHg 68%
16:00 +4°C° 0.3 mm 7 mps 744 mmHg 76%
17:00 +3°C° 0.3 mm 7 mps 744 mmHg 83%
18:00 +2°C° 0.1 mm 7 mps 744 mmHg 83%
19:00 +1°C° 0.1 mm 6 mps 745 mmHg 82%
20:00 -1°C° 0.1 mm 6 mps 745 mmHg 81%
21:00 0°C° 0 mm 5 mps 745 mmHg 84%
22:00 -1°C° 0 mm 5 mps 745 mmHg 87%
23:00 -1°C° 0 mm 5 mps 745 mmHg 90%

24 April, Saturday

Time Temperature Precipitation Wind Pressure Humidity
00:00 -2°C° 0 mm 4 mps 746 mmHg 91%
01:00 -2°C° 0 mm 4 mps 746 mmHg 92%
02:00 -3°C° 0 mm 4 mps 746 mmHg 93%
03:00 -3°C° 0 mm 4 mps 746 mmHg 94%
04:00 -4°C° 0 mm 3 mps 746 mmHg 94%
05:00 -3°C° 0 mm 2 mps 746 mmHg 94%
06:00 -1°C° 0 mm 2 mps 746 mmHg 86%
07:00 +1°C° 0 mm 2 mps 746 mmHg 78%
08:00 +3°C° 0 mm 2 mps 746 mmHg 70%
09:00 +4°C° 0 mm 2 mps 746 mmHg 62%
10:00 +5°C° 0 mm 2 mps 746 mmHg 55%
11:00 +5°C° 0 mm 3 mps 746 mmHg 48%
12:00 +5°C° 0.1 mm 3 mps 746 mmHg 49%
13:00 +5°C° 0.1 mm 4 mps 746 mmHg 49%
14:00 +5°C° 0.1 mm 4 mps 746 mmHg 50%
15:00 +5°C° 0 mm 4 mps 746 mmHg 48%
16:00 +6°C° 0 mm 5 mps 746 mmHg 46%
17:00 +6°C° 0 mm 5 mps 746 mmHg 44%
18:00 +3°C° 0 mm 5 mps 746 mmHg 50%
19:00 +2°C° 0 mm 5 mps 747 mmHg 56%
20:00 0°C° 0 mm 4 mps 747 mmHg 62%
21:00 0°C° 0 mm 4 mps 747 mmHg 67%
22:00 -1°C° 0 mm 4 mps 748 mmHg 72%
23:00 -1°C° 0 mm 3 mps 748 mmHg 77%
Show more